TAM9540 SGAS-SBCF

Flight info

Callsign TAM9540
Flight time 2h 0m
Altitude 35000
Route ROLOK ROLOK UM548 FOZ UZ65 ANSOK DCT VULAD
Aircraft A321/M-SDE3FGHIRWY/LB1

Departure

Time 2026-04-28 17:42
Airport Silvio Pettirossi International Airport (SGAS)

Arrival

Time 2026-04-28 19:42
Airport Tancredo Neves International Airport (SBCF)
Time Latitude Longitude Altitude Speed Heading
2026-04-28 17:34 -25.24247 -57.51653 300 ft 4 kts 17°
2026-04-28 17:34 -25.24273 -57.51656 301 ft 4 kts 348°
2026-04-28 17:34 -25.24289 -57.51651 302 ft 0 kts 335°
2026-04-28 17:36 -25.24287 -57.51652 301 ft 2 kts 339°
2026-04-28 17:37 -25.24235 -57.51640 302 ft 10 kts 15°
2026-04-28 17:37 -25.24169 -57.51620 301 ft 10 kts 14°
2026-04-28 17:37 -25.24099 -57.51603 301 ft 11 kts 12°
2026-04-28 17:37 -25.24023 -57.51624 299 ft 14 kts 329°
2026-04-28 17:38 -25.23942 -57.51679 302 ft 14 kts 341°
2026-04-28 17:38 -25.23828 -57.51664 302 ft 19 kts 13°
2026-04-28 17:38 -25.23700 -57.51630 300 ft 19 kts 13°
2026-04-28 17:38 -25.23568 -57.51596 300 ft 20 kts 12°
2026-04-28 17:39 -25.23431 -57.51562 299 ft 20 kts 14°
2026-04-28 17:39 -25.23296 -57.51528 300 ft 20 kts 12°
2026-04-28 17:39 -25.23023 -57.51460 302 ft 20 kts 13°
2026-04-28 17:40 -25.22886 -57.51426 300 ft 20 kts 13°
2026-04-28 17:40 -25.22747 -57.51391 302 ft 20 kts 13°
2026-04-28 17:40 -25.22612 -57.51358 302 ft 16 kts 11°
2026-04-28 17:40 -25.22548 -57.51414 301 ft 13 kts 284°
2026-04-28 17:41 -25.22529 -57.51518 300 ft 15 kts 272°
2026-04-28 17:41 -25.22686 -57.51595 304 ft 56 kts 192°
2026-04-28 17:41 -25.23319 -57.51747 301 ft 127 kts 192°
2026-04-28 17:41 -25.24351 -57.52002 373 ft 175 kts 193°
2026-04-28 17:42 -25.25566 -57.52347 1016 ft 182 kts 192°
2026-04-28 17:42 -25.26413 -57.52578 1504 ft 189 kts 190°
2026-04-28 17:42 -25.28136 -57.52944 2150 ft 198 kts 188°
2026-04-28 17:42 -25.29078 -57.53157 2266 ft 211 kts 189°
2026-04-28 17:43 -25.31024 -57.53617 2764 ft 219 kts 189°
2026-04-28 17:43 -25.32030 -57.53811 3071 ft 223 kts 179°
2026-04-28 17:43 -25.33465 -57.53308 3580 ft 218 kts 136°
2026-04-28 17:43 -25.34225 -57.51918 4171 ft 212 kts 106°
2026-04-28 17:44 -25.34571 -57.50325 4708 ft 216 kts 101°
2026-04-28 17:44 -25.34856 -57.48626 5018 ft 234 kts 99°
2026-04-28 17:44 -25.35156 -57.46767 5240 ft 256 kts 99°
2026-04-28 17:44 -25.35487 -57.44782 5681 ft 266 kts 99°
2026-04-28 17:45 -25.35842 -57.42747 6243 ft 273 kts 99°
2026-04-28 17:45 -25.36043 -57.40643 6760 ft 278 kts 88°
2026-04-28 17:45 -25.36034 -57.38484 7278 ft 284 kts 88°
2026-04-28 17:45 -25.36022 -57.36287 7840 ft 288 kts 88°
2026-04-28 17:46 -25.36009 -57.34052 8411 ft 293 kts 87°
2026-04-28 17:46 -25.35998 -57.31782 8963 ft 298 kts 87°
2026-04-28 17:46 -25.35990 -57.29474 9529 ft 303 kts 87°
2026-04-28 17:46 -25.35984 -57.27129 10069 ft 307 kts 86°
2026-04-28 17:47 -25.35977 -57.24721 10388 ft 320 kts 87°
2026-04-28 17:47 -25.35969 -57.22224 10772 ft 329 kts 87°
2026-04-28 17:47 -25.35962 -57.19682 11152 ft 338 kts 87°
2026-04-28 17:47 -25.35958 -57.17912 11380 ft 346 kts 87°
2026-04-28 17:48 -25.35944 -57.14268 11601 ft 367 kts 87°
2026-04-28 17:48 -25.35933 -57.11394 11844 ft 380 kts 87°
2026-04-28 17:48 -25.35920 -57.08433 12091 ft 391 kts 87°
2026-04-28 17:48 -25.35907 -57.05391 12469 ft 398 kts 87°
2026-04-28 17:49 -25.35895 -57.02310 12940 ft 401 kts 87°
2026-04-28 17:49 -25.35884 -56.99218 13403 ft 405 kts 87°
2026-04-28 17:49 -25.35872 -56.96079 13873 ft 409 kts 87°
2026-04-28 17:49 -25.35859 -56.92931 14063 ft 411 kts 87°
2026-04-28 17:50 -25.35843 -56.89765 14105 ft 411 kts 87°
2026-04-28 17:50 -25.35827 -56.86607 14114 ft 411 kts 87°
2026-04-28 17:50 -25.35811 -56.83434 14335 ft 414 kts 87°
2026-04-28 17:50 -25.35794 -56.80240 14763 ft 417 kts 87°
2026-04-28 17:51 -25.35777 -56.77029 15183 ft 420 kts 86°
2026-04-28 17:51 -25.35759 -56.73792 15640 ft 422 kts 86°
2026-04-28 17:51 -25.35738 -56.70538 16099 ft 424 kts 86°
2026-04-28 17:51 -25.35712 -56.67249 16528 ft 427 kts 86°
2026-04-28 17:52 -25.35686 -56.63999 16947 ft 431 kts 86°
2026-04-28 17:52 -25.35734 -56.60675 17379 ft 436 kts 92°
2026-04-28 17:52 -25.36507 -56.53960 18185 ft 444 kts 95°
2026-04-28 17:53 -25.36901 -56.50555 18561 ft 448 kts 94°
2026-04-28 17:53 -25.37290 -56.47134 18897 ft 451 kts 94°
2026-04-28 17:53 -25.37679 -56.43669 19226 ft 455 kts 94°
2026-04-28 17:53 -25.38069 -56.40186 19545 ft 459 kts 94°
2026-04-28 17:54 -25.38463 -56.36674 19860 ft 463 kts 94°
2026-04-28 17:54 -25.38859 -56.33130 20165 ft 466 kts 94°
2026-04-28 17:54 -25.39259 -56.29550 20459 ft 470 kts 94°
2026-04-28 17:54 -25.39664 -56.25950 20742 ft 474 kts 94°
2026-04-28 17:55 -25.40074 -56.22312 21040 ft 477 kts 94°
2026-04-28 17:55 -25.40484 -56.18655 21329 ft 481 kts 94°
2026-04-28 17:55 -25.40898 -56.14969 21614 ft 484 kts 94°
2026-04-28 17:55 -25.41313 -56.11262 21892 ft 487 kts 94°
2026-04-28 17:56 -25.41729 -56.07523 22185 ft 490 kts 94°
2026-04-28 17:56 -25.42147 -56.03770 22462 ft 494 kts 94°
2026-04-28 17:56 -25.42562 -56.00029 22754 ft 497 kts 94°
2026-04-28 17:56 -25.42983 -55.96223 23044 ft 500 kts 94°
2026-04-28 17:57 -25.43403 -55.92401 23311 ft 503 kts 94°
2026-04-28 17:57 -25.43824 -55.88543 23582 ft 506 kts 94°
2026-04-28 17:57 -25.44247 -55.84670 23821 ft 509 kts 94°
2026-04-28 17:57 -25.44674 -55.80771 24059 ft 512 kts 94°
2026-04-28 17:58 -25.45102 -55.76863 24302 ft 514 kts 94°
2026-04-28 17:58 -25.45532 -55.72924 24541 ft 517 kts 94°
2026-04-28 17:58 -25.45961 -55.68966 24770 ft 519 kts 94°
2026-04-28 17:58 -25.46391 -55.64989 25009 ft 521 kts 94°
2026-04-28 17:59 -25.46821 -55.60994 25228 ft 524 kts 94°
2026-04-28 17:59 -25.47249 -55.56986 25465 ft 526 kts 94°
2026-04-28 17:59 -25.47680 -55.52958 25693 ft 528 kts 94°
2026-04-28 17:59 -25.48113 -55.48920 25917 ft 530 kts 94°
2026-04-28 18:00 -25.48550 -55.44863 26148 ft 532 kts 94°
2026-04-28 18:00 -25.48989 -55.40782 26366 ft 534 kts 94°
2026-04-28 18:00 -25.49423 -55.36697 26589 ft 536 kts 94°
2026-04-28 18:00 -25.49860 -55.32574 26813 ft 538 kts 94°
2026-04-28 18:01 -25.50296 -55.28451 27021 ft 542 kts 94°
2026-04-28 18:01 -25.50731 -55.24302 27217 ft 544 kts 94°
2026-04-28 18:01 -25.51165 -55.20130 27456 ft 546 kts 94°
2026-04-28 18:01 -25.51599 -55.15953 27716 ft 546 kts 94°
2026-04-28 18:02 -25.52036 -55.11785 28038 ft 546 kts 94°
2026-04-28 18:02 -25.52476 -55.07596 28359 ft 546 kts 94°
2026-04-28 18:02 -25.52912 -55.03421 28661 ft 546 kts 94°
2026-04-28 18:02 -25.53346 -54.99241 28961 ft 546 kts 94°
2026-04-28 18:03 -25.53769 -54.95127 29283 ft 545 kts 94°
2026-04-28 18:03 -25.54197 -54.90955 29605 ft 545 kts 94°
2026-04-28 18:03 -25.54625 -54.86778 29904 ft 545 kts 94°
2026-04-28 18:03 -25.55053 -54.82609 30190 ft 545 kts 94°
2026-04-28 18:04 -25.55481 -54.78433 30448 ft 545 kts 94°
2026-04-28 18:04 -25.55903 -54.74266 30694 ft 545 kts 94°
2026-04-28 18:04 -25.56323 -54.70095 31002 ft 544 kts 93°
2026-04-28 18:04 -25.56740 -54.65943 31272 ft 543 kts 94°
2026-04-28 18:05 -25.57161 -54.61787 31518 ft 544 kts 94°
2026-04-28 18:05 -25.57432 -54.59020 31620 ft 545 kts 91°
2026-04-28 18:05 -25.57314 -54.53465 31882 ft 537 kts 76°
2026-04-28 18:05 -25.56532 -54.49457 32089 ft 529 kts 66°
2026-04-28 18:06 -25.55264 -54.45674 32352 ft 520 kts 58°
2026-04-28 18:06 -25.53601 -54.42173 32594 ft 510 kts 50°
2026-04-28 18:06 -25.51710 -54.38850 32825 ft 509 kts 49°
2026-04-28 18:06 -25.49811 -54.35536 33117 ft 509 kts 49°
2026-04-28 18:07 -25.47907 -54.32228 33309 ft 509 kts 50°
2026-04-28 18:07 -25.46002 -54.28937 33530 ft 509 kts 49°
2026-04-28 18:07 -25.44114 -54.25679 33750 ft 509 kts 49°
2026-04-28 18:07 -25.42204 -54.22383 33952 ft 509 kts 49°
2026-04-28 18:08 -25.40294 -54.19089 34153 ft 509 kts 49°
2026-04-28 18:08 -25.38383 -54.15789 34335 ft 509 kts 49°
2026-04-28 18:08 -25.36475 -54.12486 34520 ft 510 kts 50°
2026-04-28 18:08 -25.34575 -54.09186 34698 ft 510 kts 49°
2026-04-28 18:09 -25.32668 -54.05877 34871 ft 510 kts 49°
2026-04-28 18:09 -25.30763 -54.02576 35037 ft 510 kts 49°
2026-04-28 18:09 -25.26924 -53.95958 35090 ft 512 kts 49°
2026-04-28 18:10 -25.23062 -53.89327 35085 ft 512 kts 49°
2026-04-28 18:10 -25.19082 -53.82830 35092 ft 509 kts 46°
2026-04-28 18:11 -25.14900 -53.76541 35085 ft 507 kts 45°
2026-04-28 18:11 -25.10692 -53.70291 35078 ft 507 kts 46°
2026-04-28 18:12 -25.06517 -53.63981 35084 ft 509 kts 46°
2026-04-28 18:12 -25.02373 -53.57656 35091 ft 509 kts 46°
2026-04-28 18:13 -24.98254 -53.51368 35072 ft 509 kts 46°
2026-04-28 18:13 -24.94090 -53.45062 35090 ft 509 kts 46°
2026-04-28 18:14 -24.89917 -53.38757 35094 ft 509 kts 46°
2026-04-28 18:14 -24.85740 -53.32461 35094 ft 509 kts 46°
2026-04-28 18:15 -24.81567 -53.26157 35101 ft 509 kts 46°
2026-04-28 18:15 -24.77393 -53.19855 35093 ft 509 kts 46°
2026-04-28 18:16 -24.73211 -53.13568 35087 ft 509 kts 46°
2026-04-28 18:16 -24.69021 -53.07283 35092 ft 509 kts 46°
2026-04-28 18:17 -24.64839 -53.01007 35096 ft 509 kts 46°
2026-04-28 18:17 -24.60666 -52.94716 35081 ft 509 kts 46°
2026-04-28 18:18 -24.56522 -52.88459 35065 ft 510 kts 46°
2026-04-28 18:18 -24.53026 -52.83192 35080 ft 509 kts 46°
2026-04-28 18:19 -24.48164 -52.75896 35068 ft 509 kts 46°
2026-04-28 18:19 -24.43974 -52.69632 35084 ft 509 kts 46°
2026-04-28 18:20 -24.39768 -52.63392 35091 ft 508 kts 46°
2026-04-28 18:20 -24.35555 -52.57162 35101 ft 508 kts 46°
2026-04-28 18:21 -24.31351 -52.50932 35082 ft 508 kts 46°
2026-04-28 18:21 -24.27139 -52.44698 35094 ft 507 kts 46°
2026-04-28 18:22 -24.22933 -52.38489 35099 ft 507 kts 46°
2026-04-28 18:22 -24.18718 -52.32266 35081 ft 512 kts 46°
2026-04-28 18:23 -24.14448 -52.25954 35075 ft 518 kts 46°
2026-04-28 18:23 -24.10165 -52.19600 35071 ft 518 kts 47°
2026-04-28 18:24 -24.07324 -52.15404 35067 ft 518 kts 46°
2026-04-28 18:24 -24.01556 -52.07028 35059 ft 516 kts 45°
2026-04-28 18:25 -23.97128 -52.00839 35059 ft 516 kts 45°
2026-04-28 18:26 -23.90475 -51.91545 35073 ft 517 kts 45°
2026-04-28 18:26 -23.86061 -51.85331 35083 ft 518 kts 45°
2026-04-28 18:27 -23.82393 -51.80161 35077 ft 518 kts 46°
2026-04-28 18:27 -23.77976 -51.73943 35088 ft 518 kts 46°
2026-04-28 18:28 -23.73544 -51.67741 35094 ft 517 kts 45°
2026-04-28 18:28 -23.68432 -51.60525 35095 ft 517 kts 46°
2026-04-28 18:29 -23.64766 -51.55308 35101 ft 517 kts 46°
2026-04-28 18:29 -23.60404 -51.49099 35109 ft 516 kts 46°
2026-04-28 18:30 -23.56049 -51.42934 35110 ft 515 kts 46°
2026-04-28 18:30 -23.51663 -51.36747 35101 ft 515 kts 46°
2026-04-28 18:31 -23.47321 -51.30538 35098 ft 515 kts 47°
2026-04-28 18:31 -23.43023 -51.24309 35092 ft 514 kts 47°
2026-04-28 18:32 -23.38723 -51.18095 35088 ft 513 kts 47°
2026-04-28 18:32 -23.34443 -51.11894 35083 ft 514 kts 50°
2026-04-28 18:33 -23.30976 -51.05024 35084 ft 520 kts 57°
2026-04-28 18:33 -23.27656 -50.98028 35087 ft 519 kts 57°
2026-04-28 18:34 -23.24336 -50.91053 35086 ft 519 kts 57°
2026-04-28 18:34 -23.21015 -50.84090 35082 ft 518 kts 58°
2026-04-28 18:35 -23.17694 -50.77150 35091 ft 517 kts 58°
2026-04-28 18:35 -23.14398 -50.70272 35091 ft 517 kts 58°
2026-04-28 18:36 -23.11077 -50.63347 35087 ft 516 kts 58°
2026-04-28 18:36 -23.07759 -50.56431 35085 ft 516 kts 58°
2026-04-28 18:37 -23.04437 -50.49531 35084 ft 515 kts 58°
2026-04-28 18:37 -23.01119 -50.42637 35082 ft 515 kts 58°
2026-04-28 18:38 -22.97801 -50.35742 35084 ft 514 kts 58°
2026-04-28 18:38 -22.94490 -50.28863 35083 ft 514 kts 58°
2026-04-28 18:39 -22.91181 -50.22003 35082 ft 513 kts 58°
2026-04-28 18:39 -22.87858 -50.15139 35085 ft 513 kts 58°
2026-04-28 18:40 -22.84559 -50.08342 35085 ft 512 kts 58°
2026-04-28 18:40 -22.81252 -50.01512 35084 ft 512 kts 58°
2026-04-28 18:41 -22.77940 -49.94677 35085 ft 512 kts 58°
2026-04-28 18:41 -22.74622 -49.87848 35086 ft 512 kts 58°
2026-04-28 18:42 -22.71291 -49.81041 35094 ft 512 kts 58°
2026-04-28 18:42 -22.67961 -49.74231 35078 ft 511 kts 58°
2026-04-28 18:43 -22.64641 -49.67429 35092 ft 511 kts 58°
2026-04-28 18:43 -22.61303 -49.60621 35088 ft 511 kts 58°
2026-04-28 18:44 -22.57967 -49.53831 35073 ft 511 kts 58°
2026-04-28 18:44 -22.52963 -49.43669 35077 ft 510 kts 58°
2026-04-28 18:45 -22.49632 -49.36899 35090 ft 510 kts 58°
2026-04-28 18:45 -22.46290 -49.30134 35075 ft 509 kts 58°
2026-04-28 18:46 -22.42979 -49.23427 35083 ft 509 kts 58°
2026-04-28 18:46 -22.39479 -49.16806 35082 ft 503 kts 49°
2026-04-28 18:47 -22.34727 -49.11400 35083 ft 495 kts 38°
2026-04-28 18:47 -22.29702 -49.06322 35082 ft 495 kts 38°
2026-04-28 18:48 -22.24678 -49.01229 35083 ft 494 kts 38°
2026-04-28 18:48 -22.19690 -48.96186 35083 ft 494 kts 38°
2026-04-28 18:49 -22.15478 -48.91932 35085 ft 494 kts 38°
2026-04-28 18:49 -22.09639 -48.86035 35083 ft 494 kts 38°
2026-04-28 18:50 -22.04623 -48.80965 35079 ft 494 kts 38°
2026-04-28 18:50 -21.99634 -48.75934 35078 ft 494 kts 38°
2026-04-28 18:51 -21.94610 -48.70880 35077 ft 494 kts 38°
2026-04-28 18:51 -21.89584 -48.65840 35077 ft 493 kts 38°
2026-04-28 18:52 -21.84562 -48.60806 35079 ft 493 kts 38°
2026-04-28 18:52 -21.79547 -48.55769 35084 ft 493 kts 38°
2026-04-28 18:53 -21.74559 -48.50750 35049 ft 482 kts 38°
2026-04-28 18:53 -21.69706 -48.45878 35050 ft 475 kts 38°
2026-04-28 18:54 -21.64900 -48.41081 35051 ft 473 kts 38°
2026-04-28 18:54 -21.60067 -48.36267 35049 ft 473 kts 38°
2026-04-28 18:55 -21.56059 -48.32265 35049 ft 473 kts 38°
2026-04-28 18:55 -21.50421 -48.26631 35049 ft 473 kts 38°
2026-04-28 18:56 -21.45595 -48.21817 35047 ft 474 kts 38°
2026-04-28 18:56 -21.40752 -48.17000 35027 ft 475 kts 38°
2026-04-28 18:57 -21.35890 -48.12165 35023 ft 478 kts 38°
2026-04-28 18:57 -21.31045 -48.07342 35025 ft 479 kts 38°
2026-04-28 18:58 -21.26138 -48.02474 35028 ft 480 kts 38°
2026-04-28 18:58 -21.21235 -47.97618 35030 ft 480 kts 38°
2026-04-28 18:59 -21.16329 -47.92763 35039 ft 480 kts 38°
2026-04-28 18:59 -21.11424 -47.87904 35043 ft 481 kts 38°
2026-04-28 19:00 -21.06502 -47.83040 35037 ft 481 kts 38°
2026-04-28 19:00 -21.01623 -47.78207 35045 ft 480 kts 38°
2026-04-28 19:01 -20.96714 -47.73358 35060 ft 480 kts 38°
2026-04-28 19:01 -20.91805 -47.68525 35046 ft 479 kts 38°
2026-04-28 19:02 -20.86900 -47.63699 35048 ft 479 kts 38°
2026-04-28 19:02 -20.81993 -47.58864 35054 ft 479 kts 38°
2026-04-28 19:03 -20.77095 -47.54036 35053 ft 479 kts 38°
2026-04-28 19:03 -20.72185 -47.49206 35058 ft 479 kts 38°
2026-04-28 19:04 -20.67275 -47.44396 35058 ft 479 kts 38°
2026-04-28 19:04 -20.62359 -47.39577 35062 ft 479 kts 38°
2026-04-28 19:05 -20.57487 -47.34794 35064 ft 479 kts 38°
2026-04-28 19:05 -20.52571 -47.29976 35066 ft 479 kts 38°
2026-04-28 19:06 -20.48482 -47.25976 35062 ft 480 kts 38°
2026-04-28 19:06 -20.42729 -47.20353 35067 ft 480 kts 38°
2026-04-28 19:07 -20.37803 -47.15539 35055 ft 480 kts 39°
2026-04-28 19:07 -20.32880 -47.10740 35065 ft 479 kts 39°
2026-04-28 19:08 -20.27961 -47.05950 35067 ft 479 kts 39°
2026-04-28 19:08 -20.23078 -47.01194 35075 ft 479 kts 39°
2026-04-28 19:09 -20.18167 -46.96412 35036 ft 478 kts 39°
2026-04-28 19:09 -20.13246 -46.91632 35037 ft 478 kts 39°
2026-04-28 19:10 -20.08334 -46.86866 35042 ft 478 kts 39°
2026-04-28 19:10 -20.03422 -46.82098 35040 ft 478 kts 39°
2026-04-28 19:11 -19.98512 -46.77335 35044 ft 477 kts 39°
2026-04-28 19:11 -19.93640 -46.72613 35046 ft 476 kts 39°
2026-04-28 19:12 -19.88741 -46.67872 35048 ft 476 kts 39°
2026-04-28 19:12 -19.83839 -46.63133 35050 ft 476 kts 39°
2026-04-28 19:13 -19.78909 -46.58378 35031 ft 483 kts 39°
2026-04-28 19:13 -19.73954 -46.53596 35029 ft 477 kts 39°
2026-04-28 19:14 -19.69881 -46.49664 35031 ft 475 kts 39°
2026-04-28 19:14 -19.64991 -46.44955 35029 ft 474 kts 39°
2026-04-28 19:15 -19.60097 -46.40249 35030 ft 474 kts 39°
2026-04-28 19:15 -19.56033 -46.36338 35029 ft 475 kts 39°
2026-04-28 19:16 -19.50311 -46.30833 35039 ft 475 kts 39°
2026-04-28 19:16 -19.45418 -46.26127 35044 ft 475 kts 39°
2026-04-28 19:17 -19.40533 -46.21428 35040 ft 475 kts 39°
2026-04-28 19:17 -19.35668 -46.16762 35042 ft 475 kts 39°
2026-04-28 19:18 -19.30767 -46.12078 35042 ft 475 kts 39°
2026-04-28 19:18 -19.25866 -46.07396 35044 ft 475 kts 39°
2026-04-28 19:19 -19.20982 -46.02693 35046 ft 476 kts 44°
2026-04-28 19:19 -19.17257 -45.96908 35037 ft 481 kts 65°
2026-04-28 19:20 -19.16192 -45.93556 35038 ft 482 kts 76°
2026-04-28 19:20 -19.15709 -45.90039 35033 ft 483 kts 86°
2026-04-28 19:20 -19.15296 -45.82936 34993 ft 485 kts 85°
2026-04-28 19:21 -19.15083 -45.79381 34755 ft 484 kts 85°
2026-04-28 19:21 -19.14867 -45.75834 34522 ft 483 kts 85°
2026-04-28 19:21 -19.14647 -45.72288 34296 ft 483 kts 85°
2026-04-28 19:21 -19.14426 -45.68750 34066 ft 483 kts 85°
2026-04-28 19:22 -19.14206 -45.65205 33819 ft 483 kts 85°
2026-04-28 19:22 -19.14062 -45.62860 33650 ft 483 kts 85°
2026-04-28 19:22 -19.13766 -45.58101 33306 ft 484 kts 85°
2026-04-28 19:22 -19.13547 -45.54548 32967 ft 484 kts 85°
2026-04-28 19:23 -19.13324 -45.50976 31981 ft 491 kts 84°
2026-04-28 19:23 -19.13096 -45.47348 31125 ft 496 kts 84°
2026-04-28 19:23 -19.12867 -45.43698 30157 ft 502 kts 83°
2026-04-28 19:23 -19.12635 -45.39981 29037 ft 508 kts 83°
2026-04-28 19:24 -19.12405 -45.36260 28312 ft 504 kts 84°
2026-04-28 19:24 -19.12181 -45.32584 27694 ft 499 kts 84°
2026-04-28 19:24 -19.11960 -45.28978 27048 ft 496 kts 84°
2026-04-28 19:24 -19.11732 -45.25343 26406 ft 494 kts 83°
2026-04-28 19:25 -19.11500 -45.21740 25751 ft 491 kts 83°
2026-04-28 19:25 -19.11268 -45.18146 25102 ft 488 kts 83°
2026-04-28 19:25 -19.11038 -45.14572 24481 ft 484 kts 84°
2026-04-28 19:25 -19.10811 -45.11038 23867 ft 479 kts 83°
2026-04-28 19:26 -19.10594 -45.07603 23176 ft 457 kts 83°
2026-04-28 19:26 -19.10382 -45.04287 22595 ft 449 kts 83°
2026-04-28 19:26 -19.10170 -45.00995 22010 ft 446 kts 83°
2026-04-28 19:26 -19.09960 -44.97743 21443 ft 442 kts 84°
2026-04-28 19:27 -19.09751 -44.94515 20886 ft 438 kts 84°
2026-04-28 19:27 -19.09544 -44.91322 20351 ft 434 kts 84°
2026-04-28 19:27 -19.09335 -44.88140 19819 ft 431 kts 84°
2026-04-28 19:27 -19.09126 -44.84985 19293 ft 428 kts 84°
2026-04-28 19:28 -19.08918 -44.81863 18799 ft 425 kts 84°
2026-04-28 19:28 -19.08707 -44.78759 18297 ft 423 kts 84°
2026-04-28 19:28 -19.08498 -44.75657 17758 ft 420 kts 84°
2026-04-28 19:28 -19.08339 -44.72591 17236 ft 417 kts 89°
2026-04-28 19:29 -19.08693 -44.69543 16618 ft 419 kts 103°
2026-04-28 19:29 -19.09293 -44.67604 16251 ft 419 kts 111°
2026-04-28 19:29 -19.11288 -44.64081 15521 ft 418 kts 127°
2026-04-28 19:29 -19.13041 -44.61671 14933 ft 405 kts 126°
2026-04-28 19:30 -19.14702 -44.59370 14415 ft 385 kts 126°
2026-04-28 19:30 -19.16319 -44.57120 13881 ft 384 kts 126°
2026-04-28 19:30 -19.17908 -44.54903 13236 ft 369 kts 126°
2026-04-28 19:30 -19.19403 -44.52818 12673 ft 350 kts 125°
2026-04-28 19:31 -19.20850 -44.50805 12159 ft 333 kts 126°
2026-04-28 19:31 -19.22210 -44.48911 11652 ft 318 kts 126°
2026-04-28 19:31 -19.23527 -44.47078 11147 ft 304 kts 126°
2026-04-28 19:31 -19.24793 -44.45320 10649 ft 292 kts 126°
2026-04-28 19:32 -19.25991 -44.43650 10173 ft 283 kts 126°
2026-04-28 19:32 -19.27166 -44.42008 9664 ft 277 kts 126°
2026-04-28 19:32 -19.28305 -44.40416 9144 ft 269 kts 126°
2026-04-28 19:32 -19.29430 -44.38845 9003 ft 268 kts 125°
2026-04-28 19:33 -19.30492 -44.37228 8885 ft 268 kts 122°
2026-04-28 19:33 -19.31499 -44.35556 8761 ft 274 kts 121°
2026-04-28 19:33 -19.32513 -44.33818 8638 ft 279 kts 121°
2026-04-28 19:33 -19.33536 -44.32054 8503 ft 281 kts 120°
2026-04-28 19:34 -19.34548 -44.30319 8391 ft 278 kts 121°
2026-04-28 19:34 -19.35560 -44.28599 8263 ft 269 kts 121°
2026-04-28 19:34 -19.36532 -44.26957 8135 ft 260 kts 121°
2026-04-28 19:34 -19.37471 -44.25372 8023 ft 251 kts 121°
2026-04-28 19:35 -19.38391 -44.23823 7865 ft 243 kts 121°
2026-04-28 19:35 -19.39293 -44.22299 7537 ft 244 kts 121°
2026-04-28 19:35 -19.40168 -44.20818 7444 ft 234 kts 121°
2026-04-28 19:35 -19.41039 -44.19343 7326 ft 237 kts 121°
2026-04-28 19:36 -19.41913 -44.17866 7203 ft 235 kts 121°
2026-04-28 19:36 -19.42783 -44.16398 7090 ft 236 kts 121°
2026-04-28 19:36 -19.43759 -44.14993 6964 ft 237 kts 133°
2026-04-28 19:36 -19.44959 -44.13868 6877 ft 224 kts 138°
2026-04-28 19:37 -19.46090 -44.12833 6740 ft 205 kts 137°
2026-04-28 19:37 -19.46792 -44.12187 6605 ft 197 kts 136°
2026-04-28 19:37 -19.48136 -44.10948 6289 ft 187 kts 137°
2026-04-28 19:37 -19.49112 -44.10043 5973 ft 185 kts 136°
2026-04-28 19:38 -19.50053 -44.09173 5722 ft 176 kts 136°
2026-04-28 19:38 -19.50963 -44.08333 5485 ft 171 kts 136°
2026-04-28 19:38 -19.51855 -44.07510 5274 ft 172 kts 136°
2026-04-28 19:38 -19.52756 -44.06678 5057 ft 171 kts 136°
2026-04-28 19:39 -19.53654 -44.05850 4912 ft 169 kts 136°
2026-04-28 19:39 -19.54538 -44.05034 4700 ft 170 kts 137°
2026-04-28 19:39 -19.55438 -44.04204 4481 ft 170 kts 136°
2026-04-28 19:39 -19.56312 -44.03397 4282 ft 162 kts 137°
2026-04-28 19:40 -19.57146 -44.02628 4064 ft 157 kts 137°
2026-04-28 19:40 -19.57970 -44.01867 3865 ft 156 kts 135°
2026-04-28 19:40 -19.58781 -44.01118 3680 ft 153 kts 136°
2026-04-28 19:40 -19.59577 -44.00383 3507 ft 153 kts 136°
2026-04-28 19:41 -19.60382 -43.99640 3345 ft 155 kts 137°
2026-04-28 19:41 -19.61206 -43.98879 3134 ft 156 kts 138°
2026-04-28 19:41 -19.62012 -43.98121 2922 ft 154 kts 137°
2026-04-28 19:41 -19.62787 -43.97407 2820 ft 126 kts 139°
2026-04-28 19:42 -19.63219 -43.97014 2819 ft 40 kts 139°
2026-04-28 19:42 -19.63400 -43.96840 2817 ft 34 kts 138°
2026-04-28 19:42 -19.63558 -43.96665 2820 ft 30 kts 119°
2026-04-28 19:42 -19.63601 -43.96540 2818 ft 25 kts 106°
2026-04-28 19:43 -19.63615 -43.96366 2820 ft 16 kts 43°
2026-04-28 19:43 -19.63516 -43.96306 2822 ft 17 kts 20°
2026-04-28 19:43 -19.63436 -43.96371 2819 ft 17 kts 299°
2026-04-28 19:43 -19.63368 -43.96452 2819 ft 11 kts 15°
2026-04-28 19:44 -19.63327 -43.96412 2819 ft 4 kts 48°
2026-04-28 19:44 -19.63321 -43.96405 2819 ft 0 kts 47°